Time,TemperatureF,DewpointF,PressureIn,WindDirection,WindDirectionDegrees,WindSpeedMPH,WindSpeedGustMPH,Humidity,HourlyPrecipIn,Conditions,Clouds,dailyrainin,SolarRadiationWatts/m^2,SoftwareType,DateUTC
2013-04-02 00:03:00,55.0,31.0,30.18,NW,310,10.0,25.0,39,0.00,,,0.25,0.000000,,2013-04-02 04:03:00,
2013-04-02 00:13:00,55.0,31.0,30.18,NW,310,10.0,25.0,39,0.00,,,0.25,0.000000,,2013-04-02 04:13:00,
2013-04-02 00:43:00,57.0,30.0,30.19,NW,319,19.0,35.0,35,0.00,,,0.22,0.000000,,2013-04-02 04:43:00,
2013-04-02 00:53:00,57.0,30.0,30.19,NW,319,19.0,35.0,35,0.00,,,0.22,0.000000,,2013-04-02 04:53:00,
2013-04-02 01:02:00,57.0,30.0,30.19,NW,319,19.0,35.0,35,0.00,,,0.22,0.000000,,2013-04-02 05:02:00,
2013-04-02 01:12:00,57.0,30.0,30.19,NW,319,19.0,35.0,35,0.00,,,0.22,0.000000,,2013-04-02 05:12:00,
2013-04-02 01:43:00,51.0,33.0,30.23,WNW,282,12.0,30.0,49,0.00,,,0.19,0.000000,,2013-04-02 05:43:00,
2013-04-02 01:52:00,51.0,33.0,30.23,WNW,282,12.0,30.0,49,0.00,,,0.19,0.000000,,2013-04-02 05:52:00,
2013-04-02 02:02:00,51.0,33.0,30.23,WNW,282,12.0,30.0,49,0.00,,,0.19,0.000000,,2013-04-02 06:02:00,
2013-04-02 02:12:00,51.0,33.0,30.23,WNW,282,12.0,30.0,49,0.00,,,0.19,0.000000,,2013-04-02 06:12:00,
2013-04-02 02:42:00,48.0,32.0,30.25,NNE,25,6.0,14.0,53,0.00,,,0.17,0.000000,,2013-04-02 06:42:00,
2013-04-02 02:52:00,48.0,32.0,30.25,NNE,25,6.0,14.0,53,0.00,,,0.17,0.000000,,2013-04-02 06:52:00,
2013-04-02 03:02:00,48.0,32.0,30.25,NNE,25,6.0,14.0,53,0.00,,,0.17,0.000000,,2013-04-02 07:02:00,
2013-04-02 03:13:00,48.0,32.0,30.25,NNE,25,6.0,14.0,53,0.00,,,0.17,0.000000,,2013-04-02 07:13:00,
2013-04-02 03:43:00,45.0,31.0,30.26,NNE,30,5.0,13.0,58,0.01,,,0.16,0.000000,,2013-04-02 07:43:00,
2013-04-02 03:53:00,45.0,31.0,30.26,NNE,30,5.0,13.0,58,0.01,,,0.16,0.000000,,2013-04-02 07:53:00,
2013-04-02 04:02:00,45.0,31.0,30.26,NNE,30,5.0,13.0,58,0.01,,,0.16,0.000000,,2013-04-02 08:02:00,
2013-04-02 04:13:00,45.0,31.0,30.26,NNE,30,5.0,13.0,58,0.01,,,0.16,0.000000,,2013-04-02 08:13:00,
2013-04-02 04:43:00,39.0,32.0,30.27,ENE,63,3.0,9.0,76,0.00,,,0.15,0.000000,,2013-04-02 08:43:00,
2013-04-02 04:52:00,39.0,32.0,30.27,ENE,63,3.0,9.0,76,0.00,,,0.15,0.000000,,2013-04-02 08:52:00,
2013-04-02 05:02:00,39.0,32.0,30.27,ENE,63,3.0,9.0,76,0.00,,,0.15,0.000000,,2013-04-02 09:02:00,
2013-04-02 05:13:00,39.0,32.0,30.27,ENE,63,3.0,9.0,76,0.00,,,0.15,0.000000,,2013-04-02 09:13:00,
2013-04-02 05:43:00,38.0,33.0,30.30,ENE,67,2.0,6.0,83,0.00,,,0.14,0.000000,,2013-04-02 09:43:00,
2013-04-02 05:53:00,38.0,33.0,30.30,ENE,67,2.0,6.0,83,0.00,,,0.14,0.000000,,2013-04-02 09:53:00,
2013-04-02 06:03:00,38.0,33.0,30.30,ENE,67,2.0,6.0,83,0.00,,,0.14,0.000000,,2013-04-02 10:03:00,
2013-04-02 06:13:00,38.0,33.0,30.30,ENE,67,2.0,6.0,83,0.00,,,0.14,0.000000,,2013-04-02 10:13:00,
2013-04-02 06:43:00,34.0,32.0,30.32,East,95,1.0,3.0,93,0.00,,,0.13,0.000000,,2013-04-02 10:43:00,
2013-04-02 06:53:00,34.0,32.0,30.32,East,95,1.0,3.0,93,0.00,,,0.13,0.000000,,2013-04-02 10:53:00,
2013-04-02 07:02:00,34.0,32.0,30.32,East,95,1.0,3.0,93,0.00,,,0.13,0.000000,,2013-04-02 11:02:00,
2013-04-02 07:12:00,34.0,32.0,30.32,East,95,1.0,3.0,93,0.00,,,0.13,0.000000,,2013-04-02 11:12:00,
2013-04-02 07:43:00,34.0,33.0,30.36,SSE,156,1.0,4.0,96,0.00,,,0.12,0.000000,,2013-04-02 11:43:00,
2013-04-02 07:53:00,34.0,33.0,30.36,SSE,156,1.0,4.0,96,0.00,,,0.12,0.000000,,2013-04-02 11:53:00,
2013-04-02 08:02:00,34.0,33.0,30.36,SSE,156,1.0,4.0,96,0.00,,,0.12,0.000000,,2013-04-02 12:02:00,
2013-04-02 08:12:00,34.0,33.0,30.36,SSE,156,1.0,4.0,96,0.00,,,0.12,0.000000,,2013-04-02 12:12:00,
2013-04-02 08:42:00,42.0,38.0,30.39,ENE,57,2.0,4.0,84,0.00,,,0.11,44.000000,,2013-04-02 12:42:00,
2013-04-02 08:53:00,42.0,38.0,30.39,ENE,57,2.0,4.0,84,0.00,,,0.11,44.000000,,2013-04-02 12:53:00,
2013-04-02 09:02:00,42.0,38.0,30.39,ENE,57,2.0,4.0,84,0.00,,,0.11,44.000000,,2013-04-02 13:02:00,
2013-04-02 09:12:00,42.0,38.0,30.39,ENE,57,2.0,4.0,84,0.00,,,0.11,44.000000,,2013-04-02 13:12:00,
2013-04-02 09:42:00,51.0,31.0,30.39,NE,40,3.0,10.0,46,0.00,,,0.10,276.000000,,2013-04-02 13:42:00,
2013-04-02 09:52:00,51.0,31.0,30.39,NE,40,3.0,10.0,46,0.00,,,0.10,276.000000,,2013-04-02 13:52:00,
2013-04-02 10:02:00,51.0,31.0,30.39,NE,40,3.0,10.0,46,0.00,,,0.10,276.000000,,2013-04-02 14:02:00,
2013-04-02 10:12:00,51.0,31.0,30.39,NE,40,3.0,10.0,46,0.00,,,0.10,276.000000,,2013-04-02 14:12:00,
2013-04-02 10:43:00,53.0,26.0,30.39,NW,320,7.0,17.0,35,0.00,,,0.09,517.000000,,2013-04-02 14:43:00,
2013-04-02 10:52:00,53.0,26.0,30.39,NW,320,7.0,17.0,35,0.00,,,0.09,517.000000,,2013-04-02 14:52:00,
2013-04-02 11:02:00,53.0,26.0,30.39,NW,320,7.0,17.0,35,0.00,,,0.09,517.000000,,2013-04-02 15:02:00,
2013-04-02 11:12:00,53.0,26.0,30.39,NW,320,7.0,17.0,35,0.00,,,0.09,517.000000,,2013-04-02 15:12:00,
2013-04-02 11:43:00,55.0,26.0,30.40,NW,325,5.0,16.0,33,0.01,,,0.09,736.000000,,2013-04-02 15:43:00,
2013-04-02 11:58:00,55.0,26.0,30.40,NW,325,5.0,16.0,33,0.01,,,0.09,736.000000,,2013-04-02 15:58:00,
2013-04-02 12:04:00,55.0,26.0,30.40,NW,325,5.0,16.0,33,0.01,,,0.09,736.000000,,2013-04-02 16:04:00,
2013-04-02 12:13:00,55.0,26.0,30.40,NW,325,5.0,16.0,33,0.01,,,0.09,736.000000,,2013-04-02 16:13:00,
2013-04-02 12:44:00,57.0,26.0,30.39,WNW,294,5.0,17.0,30,0.00,,,-99.99,901.000000,,2013-04-02 16:44:00,
2013-04-02 12:54:00,57.0,26.0,30.39,WNW,294,5.0,17.0,30,0.00,,,-99.99,901.000000,,2013-04-02 16:54:00,
2013-04-02 13:06:00,57.0,26.0,30.39,WNW,294,5.0,17.0,30,0.00,,,-99.99,901.000000,,2013-04-02 17:06:00,
2013-04-02 13:13:00,57.0,26.0,30.39,WNW,294,5.0,17.0,30,0.00,,,-99.99,901.000000,,2013-04-02 17:13:00,
2013-04-02 13:44:00,57.0,22.0,30.37,NW,308,9.0,18.0,26,0.00,,,0.08,990.000000,,2013-04-02 17:44:00,
2013-04-02 13:57:00,57.0,22.0,30.37,NW,308,9.0,18.0,26,0.00,,,0.08,990.000000,,2013-04-02 17:57:00,
2013-04-02 14:04:00,57.0,22.0,30.37,NW,308,9.0,18.0,26,0.00,,,0.08,990.000000,,2013-04-02 18:04:00,
2013-04-02 14:13:00,57.0,22.0,30.37,NW,308,9.0,18.0,26,0.00,,,0.08,990.000000,,2013-04-02 18:13:00,
2013-04-02 14:43:00,61.0,24.0,30.35,West,266,9.0,19.0,24,0.00,,,0.06,909.000000,,2013-04-02 18:43:00,
2013-04-02 14:57:00,61.0,24.0,30.35,West,266,9.0,19.0,24,0.00,,,0.06,909.000000,,2013-04-02 18:57:00,
2013-04-02 15:03:00,61.0,24.0,30.35,West,266,9.0,19.0,24,0.00,,,0.06,909.000000,,2013-04-02 19:03:00,
2013-04-02 15:13:00,61.0,24.0,30.35,West,266,9.0,19.0,24,0.00,,,0.06,909.000000,,2013-04-02 19:13:00,
2013-04-02 15:47:00,61.0,20.0,30.31,WNW,297,8.0,22.0,20,0.00,,,0.06,971.000000,,2013-04-02 19:47:00,
2013-04-02 15:57:00,61.0,20.0,30.31,WNW,297,8.0,22.0,20,0.00,,,0.06,971.000000,,2013-04-02 19:57:00,
2013-04-02 16:04:00,61.0,20.0,30.31,WNW,297,8.0,22.0,20,0.00,,,0.06,971.000000,,2013-04-02 20:04:00,
2013-04-02 16:14:00,61.0,20.0,30.31,WNW,297,8.0,22.0,20,0.00,,,0.06,971.000000,,2013-04-02 20:14:00,
2013-04-02 16:44:00,64.0,21.0,30.30,WSW,254,8.0,20.0,19,0.00,,,0.05,881.000000,,2013-04-02 20:44:00,
2013-04-02 16:55:00,64.0,21.0,30.30,WSW,254,8.0,20.0,19,0.00,,,0.05,881.000000,,2013-04-02 20:55:00,
2013-04-02 17:04:00,64.0,21.0,30.30,WSW,254,8.0,20.0,19,0.00,,,0.05,881.000000,,2013-04-02 21:04:00,
2013-04-02 17:13:00,64.0,21.0,30.30,WSW,254,8.0,20.0,19,0.00,,,0.05,881.000000,,2013-04-02 21:13:00,
2013-04-02 17:44:00,64.0,17.0,30.29,West,277,4.0,18.0,16,0.00,,,0.04,684.000000,,2013-04-02 21:44:00,
2013-04-02 17:56:00,64.0,17.0,30.29,West,277,4.0,18.0,16,0.00,,,0.04,684.000000,,2013-04-02 21:56:00,
2013-04-02 18:04:00,64.0,17.0,30.29,West,277,4.0,18.0,16,0.00,,,0.04,684.000000,,2013-04-02 22:04:00,
2013-04-02 18:14:00,64.0,17.0,30.29,West,277,4.0,18.0,16,0.00,,,0.04,684.000000,,2013-04-02 22:14:00,
2013-04-02 18:44:00,62.0,15.0,30.29,NW,305,7.0,18.0,16,0.00,,,0.04,469.000000,,2013-04-02 22:44:00,
2013-04-02 18:54:00,62.0,15.0,30.29,NW,305,7.0,18.0,16,0.00,,,0.04,469.000000,,2013-04-02 22:54:00,
2013-04-02 19:03:00,62.0,15.0,30.29,NW,305,7.0,18.0,16,0.00,,,0.04,469.000000,,2013-04-02 23:03:00,
2013-04-02 19:13:00,62.0,15.0,30.29,NW,305,7.0,18.0,16,0.00,,,0.04,469.000000,,2013-04-02 23:13:00,
2013-04-02 19:43:00,57.0,15.0,30.30,WNW,288,7.0,15.0,19,0.00,,,0.03,167.000000,,2013-04-02 23:43:00,
2013-04-02 19:54:00,57.0,15.0,30.30,WNW,288,7.0,15.0,19,0.00,,,0.03,167.000000,,2013-04-02 23:54:00,
2013-04-02 20:05:00,57.0,15.0,30.30,WNW,288,7.0,15.0,19,0.00,,,0.03,167.000000,,2013-04-03 00:05:00,
2013-04-02 20:13:00,57.0,15.0,30.30,WNW,288,7.0,15.0,19,0.00,,,0.03,167.000000,,2013-04-03 00:13:00,
2013-04-02 20:48:00,50.0,23.0,30.31,NNE,14,4.0,10.0,35,0.00,,,0.03,13.000000,,2013-04-03 00:48:00,
2013-04-02 20:57:00,50.0,23.0,30.31,NNE,14,4.0,10.0,35,0.00,,,0.03,13.000000,,2013-04-03 00:57:00,
2013-04-02 21:04:00,50.0,23.0,30.31,NNE,14,4.0,10.0,35,0.00,,,0.03,13.000000,,2013-04-03 01:04:00,
2013-04-02 21:13:00,50.0,23.0,30.31,NNE,14,4.0,10.0,35,0.00,,,0.03,13.000000,,2013-04-03 01:13:00,
2013-04-02 21:43:00,51.0,17.0,30.32,North,351,6.0,11.0,26,0.00,,,0.03,0.000000,,2013-04-03 01:43:00,
2013-04-02 21:54:00,51.0,17.0,30.32,North,351,6.0,11.0,26,0.00,,,0.03,0.000000,,2013-04-03 01:54:00,
2013-04-02 22:04:00,51.0,17.0,30.32,North,351,6.0,11.0,26,0.00,,,0.03,0.000000,,2013-04-03 02:04:00,
2013-04-02 22:13:00,51.0,17.0,30.32,North,351,6.0,11.0,26,0.00,,,0.03,0.000000,,2013-04-03 02:13:00,
2013-04-02 22:34:00,52.0,14.0,30.35,North,356,7.0,14.0,22,0.00,,,0.02,0.000000,,2013-04-03 02:34:00,
2013-04-02 22:44:00,52.0,14.0,30.35,North,356,7.0,14.0,22,0.00,,,0.02,0.000000,,2013-04-03 02:44:00,
2013-04-02 22:53:00,52.0,14.0,30.35,North,356,7.0,14.0,22,0.00,,,0.02,0.000000,,2013-04-03 02:53:00,
2013-04-02 23:06:00,52.0,14.0,30.35,North,356,7.0,14.0,22,0.00,,,0.02,0.000000,,2013-04-03 03:06:00,
2013-04-02 23:14:00,52.0,14.0,30.35,North,356,7.0,14.0,22,0.00,,,0.02,0.000000,,2013-04-03 03:14:00,
2013-04-02 23:44:00,52.0,16.0,30.37,North,8,4.0,10.0,24,0.00,,,0.02,0.000000,,2013-04-03 03:44:00,
2013-04-02 23:54:00,52.0,16.0,30.37,North,8,4.0,10.0,24,0.00,,,0.02,0.000000,,2013-04-03 03:54:00,